Regional Weather Roundup
Issued by NWS

Home | Current Version | Previous Version | Text Only | Print | Product List | Glossary Off
Versions: 1 2 3 4 5 6 7 8 9 10 11 12 13 14 15 16 17 18 19 20 21 22 23 24 25 26 27 28 29 30 31 32 33 34 35 36 37 38 39 40 41 42 43 44 45 46 47 48 49 50

000
ASUS43 KLMK 220910
RWRKY
KENTUCKY REGIONAL WEATHER ROUNDUP
NATIONAL WEATHER SERVICE LOUISVILLE KY
500 AM EDT FRI AUG 22 2014

NOTE "FAIR" INDICATES FEW OR NO CLOUDS BELOW 12,000 FEET
WITH NO SIGNIFICANT WEATHER AND/OR OBSTRUCTIONS TO VISIBILITY.

KYZ001>023-026-027-061>063-070>075-221000-
WESTERN AND SOUTH CENTRAL KENTUCKY

CITY           SKY/WX    TMP DP  RH WIND       PRES   REMARKS
PADUCAH        CLEAR     78  73  84 SW7       29.99S
HENDERSON      PTCLDY    75  72  88 SW6       29.96F
OWENSBORO      PTCLDY    75  73  93 SW8       29.99S
HOPKINSVILLE   CLEAR     75  75 100 SW3       30.03S
BOWLING GREEN  PTCLDY    77  71  82 SW6       30.03S
GLASGOW        MOCLDY    73  73  99 CALM      30.03F
$$

KYZ024-025-028>034-038-045-046-053-221000-
NORTH CENTRAL KENTUCKY

CITY           SKY/WX    TMP DP  RH WIND       PRES   REMARKS
LOUISVILLE/SDF PTCLDY    79  72  79 SW8       29.98S
LOUISVILLE/LOU CLEAR     76  72  87 CALM      29.99S
FORT KNOX      PTCLDY    75  75 100 S6        30.00S
$$

KYZ035>037-039>044-047>052-055>060-089>105-221000-
NORTHEAST KENTUCKY

CITY           SKY/WX    TMP DP  RH WIND       PRES   REMARKS
LEXINGTON      MOCLDY    76  71  85 S5        30.04R
COVINGTON      CLOUDY    70  68  93 S5        30.00S FOG
FRANKFORT      PTCLDY    73  71  93 SW5       30.01S
$$

KYZ054-064>069-076>088-106>120-221000-
SOUTHEAST KENTUCKY

CITY           SKY/WX    TMP DP  RH WIND       PRES   REMARKS
JACKSON        PTCLDY    71  69  93 CALM      30.07S
LONDON         MOCLDY    72  69  90 CALM      30.08R
SOMERSET       MOCLDY    70  70 100 CALM      30.07S FOG
MIDDLESBORO    FOG       69  69 100 CALM      30.09S VSB 1/4
MONTICELLO     PTSUNNY   69  68  97 CALM      30.07F
$$



USA.gov is the U.S. government's official web portal to all federal, state and local government web resources and services.